Terminal Aerodrome Forecast
Issued by NWS Newport/Morehead City, NC

Home | Current Version | Previous Version | Text Only | Print | Product List | Glossary On
Versions: 1 2 3 4 5 6 7 8 9 10 11 12 13 14 15 16
000
FTUS42 KMHX 281121
TAFEWN
TAF
KEWN 281121Z 2812/2912 00000KT 5SM BR SKC
     FM281300 10005KT P6SM SCT250
     FM281800 12007KT P6SM SCT040 BKN200
     FM290800 VRB03KT 3SM BR BKN200=

USA.gov is the U.S. government's official web portal to all federal, state and local government web resources and services.